Date String (YYYY-MM-DD hh:mm:ss) UTC,Instrument flags,Ambient pressure (hPa),Sample flow (lpm),Bypass flow (lpm),Sample temperature (°C),Ambient temperature (°C),ASC tube jacket temperature (°C),LED temperature (°C),Box temperature (°C),Sample RH (%),Span deviation,Mass concentration (μg/m³),Mass concentration (μg/m³),Mass concentration (μg/m³)
DateTimeUTC,F1_M11,P_M11,Q1_M11,Q2_M11,T1_M11,T2_M11,T3_M11,T4_M11,T5_M11,U1_M11,ZSPAN_M11,X0_M11,X2_M11,X1_M11
2021-08-28 07:00:00,,0824.6,4.99,0.00,29.7,28.8,00.0,38.7,31.6,15.7,0000.5,0010.26,0004.42,0004.00
2021-08-28 07:01:00,,0824.7,5.01,0.00,29.8,28.9,00.0,38.7,31.6,15.5,0000.3,0009.85,0004.44,0004.01
2021-08-28 07:02:00,,0824.6,4.99,0.00,29.8,28.0,00.0,38.7,31.4,15.5,0000.5,0009.89,0004.43,0004.00
2021-08-28 07:03:00,,0824.6,5.01,0.00,29.6,26.5,00.0,38.7,31.0,15.8,0000.5,0009.81,0004.43,0004.01
2021-08-28 07:04:00,,0824.6,5.00,0.00,29.6,26.5,00.0,38.7,31.0,16.2,0000.8,0010.08,0004.48,0004.01
2021-08-28 07:05:00,,0824.7,5.01,0.00,29.5,26.9,00.0,38.7,31.1,16.5,0001.0,0010.07,0004.49,0004.01
2021-08-28 07:06:00,,0824.7,4.98,0.00,29.5,27.3,00.0,38.6,31.1,16.6,0001.1,0010.36,0004.50,0004.02
2021-08-28 07:07:00,,0824.7,5.01,0.00,29.5,27.6,00.0,38.6,31.2,16.6,0001.8,0010.42,0004.52,0004.03
2021-08-28 07:08:00,,0824.7,4.99,0.00,29.5,27.9,00.0,38.6,31.2,16.9,0001.8,0009.74,0004.54,0004.04
2021-08-28 07:09:00,,0824.6,5.00,0.00,29.5,28.1,00.0,38.6,31.3,17.1,0001.6,0010.18,0004.61,0004.04
2021-08-28 07:10:00,,0824.6,5.02,0.00,29.6,28.3,00.0,38.6,31.3,17.1,0002.1,0011.05,0004.66,0004.05
2021-08-28 07:11:00,,0824.6,5.01,0.00,29.6,28.4,00.0,38.6,31.4,17.2,0002.0,0011.07,0004.69,0004.06
2021-08-28 07:12:00,,0824.5,5.00,0.00,29.6,28.6,00.0,38.7,31.4,17.2,0002.1,0011.26,0004.72,0004.07
2021-08-28 07:13:00,,0824.7,5.00,0.00,29.7,28.7,00.0,38.7,31.5,17.1,0002.1,0011.72,0004.80,0004.11
2021-08-28 07:14:00,,0824.6,5.00,0.00,29.7,28.8,00.0,38.7,31.5,16.8,0002.4,0011.99,0004.92,0004.13
2021-08-28 07:15:00,,0824.6,5.01,0.00,29.7,28.8,00.0,38.7,31.6,16.8,0002.6,0011.61,0004.91,0004.15
2021-08-28 07:16:00,,0824.6,4.99,0.00,29.8,28.9,00.0,38.7,31.6,17.1,0002.4,0011.12,0004.95,0004.16
2021-08-28 07:17:00,,0824.6,5.01,0.00,29.8,28.8,00.0,38.8,31.6,17.1,0002.3,0011.10,0004.95,0004.17
2021-08-28 07:18:00,,0824.6,5.00,0.00,29.7,26.9,00.0,38.7,31.1,17.1,0002.2,0011.14,0004.92,0004.17
2021-08-28 07:19:00,,0824.7,5.00,0.00,29.5,25.4,00.0,38.7,30.7,17.2,0002.4,0011.16,0004.92,0004.18
2021-08-28 07:20:00,,0824.5,5.00,0.00,29.4,25.6,00.0,38.7,30.7,17.1,0002.7,0010.74,0004.88,0004.18
2021-08-28 07:21:00,,0824.6,5.00,0.00,29.3,26.1,00.0,38.6,30.8,17.0,0002.6,0010.02,0004.84,0004.18
2021-08-28 07:22:00,,0824.6,4.99,0.00,29.3,26.6,00.0,38.6,30.9,17.0,0002.9,0010.00,0004.85,0004.17
2021-08-28 07:23:00,,0824.6,5.01,0.00,29.3,27.0,00.0,38.5,30.9,17.0,0003.1,0009.77,0004.84,0004.17
2021-08-28 07:24:00,,0824.6,4.99,0.00,29.3,27.4,00.0,38.5,31.0,16.8,0002.9,0009.32,0004.78,0004.17
2021-08-28 07:25:00,,0824.6,5.01,0.00,29.3,27.6,00.0,38.5,31.0,16.2,0002.7,0008.88,0004.66,0004.14
2021-08-28 07:26:00,,0824.6,5.00,0.00,29.4,27.9,00.0,38.5,31.1,16.0,0002.5,0008.84,0004.63,0004.12
2021-08-28 07:27:00,,0824.7,5.00,0.00,29.4,28.0,00.0,38.5,31.2,15.6,0002.6,0008.65,0004.56,0004.09
2021-08-28 07:28:00,,0824.7,4.99,0.00,29.4,28.2,00.0,38.5,31.2,15.3,0002.5,0008.59,0004.51,0004.06
2021-08-28 07:29:00,,0824.6,5.01,0.00,29.5,28.3,00.0,38.5,31.3,15.3,0002.6,0008.40,0004.47,0004.04
2021-08-28 07:30:00,,0824.6,5.00,0.00,29.5,28.4,00.0,38.5,31.3,15.4,0002.6,0008.25,0004.43,0004.02
2021-08-28 07:31:00,,0824.6,5.00,0.00,29.5,28.5,00.0,38.5,31.3,15.9,0002.4,0008.20,0004.44,0004.01
2021-08-28 07:32:00,,0824.7,5.00,0.00,29.6,28.6,00.0,38.6,31.4,16.0,0002.3,0008.33,0004.42,0004.00
2021-08-28 07:33:00,,0824.6,5.00,0.00,29.6,28.7,00.0,38.6,31.4,16.2,0002.2,0008.64,0004.41,0004.01
2021-08-28 07:34:00,,0824.6,5.00,0.00,29.6,28.7,00.0,38.6,31.5,16.1,0001.9,0008.94,0004.37,0004.00
2021-08-28 07:35:00,,0824.6,5.00,0.00,29.7,28.8,00.0,38.6,31.5,15.9,0001.9,0009.60,0004.37,0003.99
2021-08-28 07:36:00,,0824.6,4.99,0.00,29.7,28.9,00.0,38.7,31.6,15.9,0001.9,0009.80,0004.40,0004.00
2021-08-28 07:37:00,,0824.6,5.00,0.00,29.8,28.9,00.0,38.7,31.6,16.0,0001.9,0010.00,0004.44,0004.01
2021-08-28 07:38:00,,0824.6,5.02,0.00,29.8,28.5,00.0,38.7,31.5,16.1,0002.2,0010.10,0004.48,0004.04
2021-08-28 07:39:00,,0824.6,5.00,0.00,29.6,26.7,00.0,38.7,31.0,16.3,0002.5,0009.93,0004.53,0004.08
2021-08-28 07:40:00,,0824.6,5.01,0.00,29.5,26.4,00.0,38.7,30.9,16.0,0002.6,0010.11,0004.59,0004.11
2021-08-28 07:41:00,,0824.6,4.99,0.00,29.5,26.7,00.0,38.6,30.9,15.5,0002.6,0010.17,0004.59,0004.11
2021-08-28 07:42:00,,0824.6,4.99,0.00,29.4,27.1,00.0,38.6,31.0,16.0,0002.8,0010.40,0004.56,0004.11
2021-08-28 07:43:00,,0824.6,4.99,0.00,29.4,27.4,00.0,38.6,31.1,16.4,0002.6,0010.57,0004.57,0004.11
2021-08-28 07:44:00,,0824.8,4.99,0.00,29.5,27.7,00.0,38.6,31.2,16.3,0002.5,0010.63,0004.56,0004.10
2021-08-28 07:45:00,,0824.7,5.01,0.00,29.5,28.0,00.0,38.6,31.2,16.4,0002.6,0010.79,0004.57,0004.10
2021-08-28 07:46:00,,0824.9,5.00,0.00,29.5,28.2,00.0,38.6,31.3,16.5,0003.1,0010.39,0004.59,0004.10
2021-08-28 07:47:00,,0824.6,5.00,0.00,29.5,28.3,00.0,38.6,31.3,16.5,0002.9,0010.22,0004.60,0004.10
2021-08-28 07:48:00,,0824.7,5.00,0.00,29.6,28.5,00.0,38.6,31.4,16.4,0002.8,0010.29,0004.62,0004.11
2021-08-28 07:49:00,,0825.0,5.01,0.00,29.6,28.6,00.0,38.6,31.4,16.4,0002.5,0010.31,0004.63,0004.12
2021-08-28 07:50:00,,0824.8,4.99,0.00,29.6,28.7,00.0,38.6,31.5,16.3,0002.1,0010.35,0004.62,0004.11
2021-08-28 07:51:00,,0824.5,5.00,0.00,29.7,28.7,00.0,38.7,31.5,16.2,0002.1,0010.24,0004.61,0004.11
2021-08-28 07:52:00,,0824.7,5.00,0.00,29.7,28.8,00.0,38.7,31.6,16.2,0002.1,0010.27,0004.63,0004.12
2021-08-28 07:53:00,,0824.6,5.01,0.00,29.8,28.9,00.0,38.7,31.6,16.0,0001.9,0010.00,0004.65,0004.15
2021-08-28 07:54:00,,0824.6,4.99,0.00,29.8,29.0,00.0,38.7,31.7,15.3,0002.1,0009.39,0004.64,0004.14
2021-08-28 07:55:00,,0824.8,5.02,0.00,29.8,28.6,00.0,38.8,31.6,14.9,0002.1,0008.92,0004.61,0004.13
2021-08-28 07:56:00,,0824.9,4.99,0.00,29.7,26.8,00.0,38.7,31.1,14.6,0002.2,0008.08,0004.55,0004.11
2021-08-28 07:57:00,,0824.6,5.00,0.00,29.6,26.4,00.0,38.7,31.0,14.7,0002.1,0007.78,0004.49,0004.08
2021-08-28 07:58:00,,0824.8,5.00,0.00,29.5,26.6,00.0,38.7,31.0,14.8,0002.1,0007.63,0004.43,0004.04
2021-08-28 07:59:00,,0824.9,5.00,0.00,29.5,27.0,00.0,38.7,31.0,14.9,0002.4,0007.30,0004.34,0004.00
